Miscellaneous Local Product
Issued by NWS Hastings, NE

Home | Current Version | Previous Version | Text Only | Print | Product List | Glossary Off
Versions: 1 2 3 4 5 6 7 8 9 10 11 12 13 14 15 16 17 18 19 20 21 22 23 24 25 26 27 28 29 30 31 32 33 34 35 36 37 38 39 40 41 42 43 44 45 46 47 48 49 50

431
AXUS43 KGID 112202
MISGRI

GID CWA HOURLY WEATHER ROUNDUP
NATIONAL WEATHER SERVICE HASTINGS NE
400 PM CST THU FEB 11 2016

NOTE: "FAIR" INDICATES FEW OR NO CLOUDS BELOW 12,000 FEET WITH NO
SIGNIFICANT WEATHER AND/OR OBSTRUCTIONS TO VISIBILITY.

...SOUTH CENTRAL NEBRASKA...

CITY           SKY/WX    TMP DP  RH WIND       PRES   REMARKS
GRAND ISLAND   CLOUDY    29  25  85 SW18      30.08F WCI  16
HASTINGS       CLOUDY    30  25  81 SW13      30.09S WCI  20
KEARNEY        CLOUDY    32  28  86 SW14      30.08S WCI  22
ORD            PTSUNNY   35  30  82 SW16      30.04S WCI  25
YORK           CLOUDY    28  27  93 S14       30.10S WCI  17
AURORA         CLOUDY    29  26  88 SW13      30.09S WCI  18
LEXINGTON      CLOUDY    38  31  75 SW7       30.06F WCI  33
HOLDREGE       CLOUDY    34  30  86 SW8       30.08R WCI  27
HEBRON         CLOUDY    28  25  87 S9        30.13F FOG     WCI  19

...NEBRASKA PANHANDLE...

CITY           SKY/WX    TMP DP  RH WIND       PRES   REMARKS
CHADRON        SUNNY     58  26  29 NW22G36   30.06R
ALLIANCE       CLOUDY    51  33  50 NW10      30.06S
SCOTTSBLUFF    CLOUDY    58  26  29 NW29G37   30.09S
SIDNEY         SUNNY     53  33  46 NW9       30.11R

...WESTERN AND NORTH CENTRAL NEBRASKA...

CITY           SKY/WX    TMP DP  RH WIND       PRES   REMARKS
VALENTINE      MOSUNNY   53  33  46 NW15      29.98R
AINSWORTH      SUNNY     53  32  44 NW25G36   29.98R
ONEILL         CLOUDY    32  31  96 S13       30.00F FOG     WCI  22
BROKEN BOW     CLOUDY    41  31  67 SW8       30.01F
IMPERIAL       CLOUDY    52  32  46 NW12      30.06R
NORTH PLATTE   SUNNY     50  33  52 SW5       30.03S
MCCOOK         SUNNY     46  33  60 SW3       30.05S

...EASTERN NEBRASKA...

CITY           SKY/WX    TMP DP  RH WIND       PRES   REMARKS
NORFOLK        CLOUDY    26  21  81 SE9       30.10F WCI  17
SO SIOUX CITY  CLOUDY    19  12  74 SE12      30.17F WCI   7
TEKAMAH        CLOUDY    21  14  74 E8        30.19F WCI  11
COLUMBUS       CLOUDY    27  16  63 S10       30.12F WCI  17
ALBION         CLOUDY    29  25  86 S13       30.08S FOG     WCI  18
OMAHA EPPLEY   CLOUDY    26  18  71 CALM      30.19S
OFFUTT AFB     PTSUNNY   30  20  66 SE6       30.17F WCI  24
MILLARD        CLOUDY    29  21  71 SE6       30.17F WCI  23
LINCOLN        CLOUDY    28  22  78 SW12      30.17R WCI  18
NEBRASKA CITY  CLOUDY    33  21  61 S12       30.15F WCI  24
BEATRICE       CLOUDY    30  23  75 S13       30.14F WCI  20
FALLS CITY     PTSUNNY   36  21  54 S10       30.17F WCI  28

...NORTHERN KANSAS...

CITY           SKY/WX    TMP DP  RH WIND       PRES   REMARKS
GOODLAND       CLOUDY    59  27  29 NW18G26   30.09R
HILL CITY      CLOUDY    50  36  58 SE7       30.07F
NORTON         CLEAR     43  28  56 CALM      30.07
SMITH CENTER   SUNNY     37  30  75 S6        30.11F WCI  33
BELOIT         CLOUDY    32  25  74 S8        30.14F WCI  25
HAYS           SUNNY     50  28  43 SW13G18   30.09S
RUSSELL        SUNNY     44  31  60 S12       30.09F
CONCORDIA      CLOUDY    31  25  78 S8        30.14F WCI  23
SALINA         SUNNY     42  26  53 S6        30.16F
TOPEKA         CLOUDY    39  21  48 CALM      30.20R



USA.gov is the U.S. government's official web portal to all federal, state and local government web resources and services.